Location: Newark
(35.0317°N, 117.3481°W)
Time: 11:48:50
(UTC+00:00)

OTV 5 (USA 277) - Visible Passes

Search period start: 25 March 2019 00:00
Search period end: 04 April 2019 00:00
Orbit: 315 x 320 km, 54.5° (Epoch: 14 March)

Date Brightness Start Highest point End Pass type
(mag) Time Alt. Az. Time Alt. Az. Time Alt. Az.
30 Mar ? 12:27:20 12° S 12:29:16 23° SE 12:31:30 10° ENE visible
31 Mar ? 12:42:07 20° SW 12:43:52 89° N 12:46:34 10° NE visible
01 Apr ? 11:25:51 10° E 11:25:51 10° E 11:25:53 10° E visible
01 Apr ? 12:56:45 13° W 12:58:36 25° NW 13:00:56 10° NNE visible
02 Apr ? 11:40:21 23° ENE 11:40:21 23° ENE 11:41:36 10° NE visible
03 Apr ? 11:54:44 27° NNE 11:54:44 27° NNE 11:56:16 10° NNE visible
